Regional Weather Roundup
Issued by NWS Columbia, SC

Home | Current Version | Previous Version | Text Only | Print | Product List | Glossary On
Versions: 1 2 3 4 5 6 7 8 9 10 11 12 13 14 15 16 17 18 19 20 21 22 23 24 25 26 27 28 29 30 31 32 33 34 35 36 37 38 39 40 41 42 43 44 45 46 47 48 49 50
000
ASUS42 KCAE 200810
RWRCAE
REGIONAL WEATHER ROUNDUP
NATIONAL WEATHER SERVICE COLUMBIA SC
400 AM EDT WED AUG 20 2014

NOTE: "FAIR" INDICATES FEW OR NO CLOUDS BELOW 12,000 FEET WITH NO
SIGNIFICANT WEATHER AND/OR OBSTRUCTIONS TO VISIBILITY.

NOT ALL STATIONS ARE QUALITY CONTROLLED BY THE NATIONAL
WEATHER SERVICE. USE DATA WITH CAUTION...ESPECIALLY
DEWPOINT OBSERVATIONS.

SCZ001>056-GAZ040-063>065-077-200900-
...UPSTATE SOUTH CAROLINA...

CITY           SKY/WX    TMP DP  RH WIND       PRES   REMARKS
ANDERSON       CLEAR     70  69  97 CALM      29.94R
LIBERTY        FAIR      67  32  26 CALM      29.94S
SPARTANBURG    FAIR      73  73 100 CALM      29.93S
CLEMSON        CLEAR     73  66  78 NW5       29.95S
GREENVILLE     MOCLDY    73  68  84 CALM      29.95R
GREENWOOD      CLEAR     72  69  90 W3        29.94R
GREER          CLOUDY    70  69  97 CALM      29.93R
ROCK HILL      CLEAR     69  68  96 N3        29.93R
CHESTER        PTSUNNY   72  72 100 CALM      29.93R FOG
LAURENS        FAIR      68 N/A N/A NW3       29.93S


...CENTRAL SOUTH CAROLINA...

CITY           SKY/WX    TMP DP  RH WIND       PRES   REMARKS
COLUMBIA APT   PTCLDY    75  70  84 W5        29.90R
COLUMBIA OWENS MOCLDY    76  70  82 W3        29.91S
DARLINGTON     CLEAR     72  70  94 NW3       29.91S
FLORENCE       PTCLDY    74  72  93 CALM      29.89S
MCENTIRE ANGB  PTCLDY    74  72  93 SW2       29.91R
ORANGEBURG     CLEAR     73  70  90 CALM      29.91F
SUMTER SHAW    CLEAR     74  72  92 SW5       29.89S
NEWBERRY       FAIR      72  72 100 CALM      29.94S
AIKEN          FAIR      72  72 100 SW3       29.95S
BARNWELL       FAIR      73  72  94 SW3       29.92F
MANNING        FAIR      75 N/A N/A CALM      29.90S
CAMDEN         FAIR      72  68  88 CALM      29.92R
LANCASTER      RAIN      70  70 100 CALM      29.92S VSB<1/4
WINNSBORO      FAIR      72  72 100 CALM      29.92R


...EASTERN AND COASTAL SOUTH CAROLINA...

CITY           SKY/WX    TMP DP  RH WIND       PRES   REMARKS
MYRTLE BEACH   CLEAR     77  73  88 W8        29.88S
N MYRTLE BCH   CLEAR     76  74  93 W5        29.88R
CONWAY         FAIR      73  73 100 CALM      29.89S FOG
MARION         FAIR      72  72 100 CALM      29.89S FOG
HARTSVILLE     FAIR      73  72  94 CALM      29.91S
FLORENCE       PTCLDY    74  72  93 CALM      29.89S
DARLINGTON     CLEAR     72  70  94 NW3       29.91S
CHARLESTON APT CLEAR     77  73  87 W9        29.91R
MOUNT PLEASANT FAIR      77  73  88 W7        29.90S
WALTERBORO     SUNNY     73 N/A N/A W5        29.92S
BEAUFORT       CLEAR     75  72  90 W7        29.92S


...EASTERN GEORGIA...

CITY           SKY/WX    TMP DP  RH WIND       PRES   REMARKS
AUGUSTA BUSH F CLEAR     71  70  96 CALM      29.91S
AUGUSTA DANIEL CLEAR     76  71  85 SW5       29.92S
THOMSON        MOCLDY    76  76  98 W3        29.97R
WASHINGTON     FAIR      77  75  94 W6        29.93S
CLAXTON        FAIR      73  73 100 CALM      29.94S
SYLVANIA       SUNNY     73  73 100 CALM      29.94S
STATESBORO     CLEAR     73  73 100 W3        29.93S
SAVANNAH       CLEAR     73  70  90 W5        29.94F


...SOUTHERN NORTH CAROLINA...

CITY           SKY/WX    TMP DP  RH WIND       PRES   REMARKS
CHARLOTTE      MOCLDY    70  68  93 N3        29.93S
MONROE         CLEAR     70  68  93 CALM      29.92R FOG
WADESBORO      MOSUNNY   71  70  95 CALM      29.90S FOG
ROCKINGHAM     FOG       72  71  98 CALM      29.90S VSB 1/4
RUTHERFORDTON  CLEAR     70  69  97 CALM      29.96R
ASHEVILLE      CLEAR     65  63  93 NW6       30.02S

$$


USA.gov is the U.S. government's official web portal to all federal, state and local government web resources and services.